Location: Cutler
(25.6150°N, 80.3110°W)
Time: 20:04:39
(UTC-05:00)

Tiangong 2 - Pass Details

Date: 14 November 2017
Orbit: 386 x 391 km, 42.8° (Epoch: 20 November)

Event Time Altitude Azimuth Distance (km) Brightness Sun altitude
Rises 19:34:19 0° 287° (WNW) 2,263 6.0 -27.3°
Reaches altitude 10° 19:36:57 10° 264° (W) 1,405 4.9 -27.9°
Enters shadow 19:38:18 15° 239° (WSW) 1,148 4.2 -28.2°
